Regional Weather Roundup
Issued by NWS

Home | Current Version | Previous Version | Graphics & Text | Print | Product List | Glossary On
Versions: 1 2 3 4 5 6 7 8 9 10 11 12 13 14 15 16 17 18 19 20 21 22 23 24 25 26 27
000
ASUS45 KPSR 251110
RWRAZ

ARIZONA HOURLY REGIONAL WEATHER ROUNDUP
NATIONAL WEATHER SERVICE PHOENIX AZ
400 AM MST SAT MAR 25 2017

NOTE: FAIR INDICATES FEW OR NO CLOUDS BELOW 12,000 FEET WITH NO
SIGNIFICANT WEATHER AND/OR OBSTRUCTIONS TO VISIBILITY.

AZZ001>003-036-251200-
NORTHWEST ARIZONA

CITY           SKY/WX    TMP DP  RH WIND       PRES   REMARKS
BULLHEAD CITY  CLOUDY    63  30  29 CALM      29.97F
KINGMAN        CLOUDY    49  25  39 SE6       30.05F
$$

AZZ004>008-015-016-018-251200-
NORTH CENTRAL ARIZONA

CITY           SKY/WX    TMP DP  RH WIND       PRES   REMARKS
GRAND CANYON   MOCLDY    29  28  96 CALM      30.15F
WILLIAMS       MOCLDY    36  28  75 S3        30.15F
PRESCOTT       MOCLDY    39  32  76 S7        30.11F WCI  34
FLAGSTAFF      MOCLDY    30  28  92 CALM      30.16F
PAYSON         PTCLDY    41  32  70 CALM      30.15F
PAGE           PTCLDY    46  31  55 CALM      30.05F
$$

AZZ009>014-017-251200-
NORTHEAST ARIZONA

CITY           SKY/WX    TMP DP  RH WIND       PRES   REMARKS
WINSLOW        PTCLDY    36  28  73 SE8       30.11F WCI  30
SAINT JOHNS    PTCLDY    36  19  50 S8        30.15F WCI  30
WINDOW ROCK    CLEAR     26  20  77 NE3       30.18F
SHOW LOW       PTCLDY    32  25  74 CALM      30.17F
$$

AZZ023-251200-
GREATER PHOENIX AREA

CITY           SKY/WX    TMP DP  RH WIND       PRES   REMARKS
PHOENIX        PTCLDY    59  39  47 E7        30.00F
BUCKEYE        MOCLDY    48  39  71 N3        30.00F
LUKE AFB       CLEAR     52  42  69 N3        30.00F
DEER VALLEY    CLEAR     55  38  52 N5        30.02S
SCOTTSDALE     CLEAR     56  42  59 CALM      30.03F
MESA-GATEWAY   CLEAR     50  41  71 SE7       30.03F
$$

AZZ027-028-251200-
SOUTHWEST MARICOPA COUNTY AND PINAL COUNTY

CITY           SKY/WX    TMP DP  RH WIND       PRES   REMARKS
CASA GRANDE    NOT AVBL
GILA BEND      FAIR      56  25  30 SE9       29.99F
$$

AZZ503-504-507>509-251200-
SOUTHEAST ARIZONA

CITY           SKY/WX    TMP DP  RH WIND       PRES   REMARKS
TUCSON         CLEAR     50  22  33 SE7       30.08F
DAVIS-MONTHAN  CLEAR     46  22  39 SE10      30.07F
NOGALES        CLEAR     40  17  39 CALM      30.09F
SIERRA VISTA   CLEAR     44  19  35 S6        30.12F
DOUGLAS        CLEAR     36  19  50 E3        30.12F
SAFFORD        CLEAR     44  31  60 S5        30.08F
$$

AZZ020-021-025-026-031-251200-
SOUTHWEST ARIZONA

CITY           SKY/WX    TMP DP  RH WIND       PRES   REMARKS
YUMA           PTCLDY    61  44  53 CALM      29.99F
$$

CAZ031-033-041-043-047-048-061-251200-
SOUTHERN CALIFORNIA

CITY           SKY/WX    TMP DP  RH WIND       PRES   REMARKS
DOWNTOWN L.A.  CLEAR     57  51  80 CALM      30.11F
L.A. AIRPORT   PTCLDY    56  53  90 W10       30.12F
SAN DIEGO      MOCLDY    58  50  75 CALM      30.13F
BURBANK        CLEAR     55  47  74 CALM      30.11S
ONTARIO        MOCLDY    53  45  74 S5        30.09F
RIVERSIDE      MOCLDY    52  47  83 S3        30.10F
PALM SPRINGS   CLOUDY    64  45  49 CALM      30.00F
EL CENTRO NAS  CLOUDY    65  36  34 W7        30.00F
IMPERIAL       CLOUDY    62  43  49 W5        29.98F
BLYTHE         CLOUDY    63  35  35 CALM      29.98F
NEEDLES        CLOUDY    65  31  28 CALM      29.97F
$$

NVZ020-UTZ003-251200-
SOUTHERN NEVADA-UTAH

CITY           SKY/WX    TMP DP  RH WIND       PRES   REMARKS
LAS VEGAS      CLOUDY    66  33  29 S13G22    29.93F
SALT LAKE CITY CLOUDY    49  40  71 W9        29.99S
$$

NMZ009-TXZ055-251200-
NEW MEXICO-WEST TEXAS

CITY           SKY/WX    TMP DP  RH WIND       PRES   REMARKS
ALBUQUERQUE    CLOUDY    41  18  39 S5        30.17R
EL PASO        CLEAR     50  19  29 NW7       30.11R
$$


........................KEY........................
SKY/WX - SKY CONDITION/WEATHER
TMP    - TEMPERATURE IN FAHRENHEIT
DP     - DEW POINT IN FAHRENHEIT
RH     - RELATIVE HUMIDITY IN PERCENT
WIND   - DIRECTION AND SPEED IN MILES PER HOUR (MPH)
VRB    - VARIABLE WIND DIRECTION
PRES   - MEAN SEA LEVEL PRESSURE IN INCHES OF MERCURY
         F - FALLING PRESSURE   R - RISING PRESSURE
         S - STEADY PRESSURE
VSB    - VISIBILITY IN MILES
HX     - HEAT INDEX IN FAHRENHEIT
WCI    - WIND CHILL INDEX IN FAHRENHEIT
TC     - TEMPERATURE IN CELSIUS WHICH IS ALSO KNOWN AS
         TEMPERATURE IN CENTIGRADE
AFB    - AIR FORCE BASE
         LUKE AFB IS LUKE AIR FORCE BASE
         DAVIS-MONTHAN IS DAVIS-MONTHAN AIR FORCE BASE
NAS    - NAVAL AIR STATION
         EL CENTRO NAS IS EL CENTRO NAVAL AIR STATION
N/A    - NOT AVAILABLE





USA.gov is the U.S. government's official web portal to all federal, state and local government web resources and services.